Home > Weather > Glendale > Past weeks

Flag for USA Past Weather in Glendale, Arizona, USA — Yesterday and Last 2 Weeks

Now
87 °F

Clear.


Feels Like: 84 °F
Forecast: 83 / 108 °F
Wind: 5 mph from East

Location: Phoenix-Deer Valley Municipal Airport

Current Time: Jun 26, 2016 at 1:18:16 AM

Latest Report: Jun 26, 2016 at 12:53 AM


Visibility: 10 mi

Pressure: 29.73 "Hg

Humidity: 22%

Dew Point: 44 °F

Location of GlendaleLocation

Past Weather in Glendale — Graph

°F

Glendale Temperature Yesterday

Maximum temperature yesterday: 105 °F (at 3:53 PM)
Minimum temperature yesterday: 80 °F (at 5:53 AM)
Average temperature yesterday: 95 °F

High & Low Weather Summary for the Past Weeks

 TemperatureHumidityPressure
High116 °F (Jun 19, 2:53 PM)62% (Jun 10, 11:53 PM)29.94 "Hg (Jun 10, 11:53 PM)
Low69 °F (Jun 14, 3:53 AM)5% (Jun 17, 3:53 PM)29.62 "Hg (Jun 19, 6:53 PM)
Average92 °F16%29.79 "Hg
* Reported Jun 10 11:53 PM — Jun 25 11:53 PM, Glendale, Weather by CustomWeather, © 2016

Note: Actual official high and low records may vary slightly from our data, if they occured in-between our weather recording intervals... More about our weather records

Advertising

Glendale Weather History for the Previous 24 Hours

Scroll right to see more
 ConditionsComfort  
Time TempWeatherWind HumidityBarometerVisibility
11:53 PM
Sat, Jun 25
89 °FClear.No wind20%29.72 "Hg10 mi
10:53 PM95 °FClear.No wind18%29.72 "Hg10 mi
9:53 PM98 °FClear.3 mph16%29.70 "Hg10 mi
8:53 PM99 °FClear.6 mph16%29.68 "Hg10 mi
7:53 PM102 °FClear.10 mph14%29.67 "Hg10 mi
6:53 PM103 °FSunny.7 mph13%29.66 "Hg10 mi
5:53 PM104 °FSunny.6 mph13%29.66 "Hg10 mi
4:53 PM104 °FSunny.8 mph12%29.67 "Hg10 mi
3:53 PM105 °FSunny.12 mph12%29.68 "Hg10 mi
2:53 PM102 °FSunny.5 mph14%29.71 "Hg10 mi
1:53 PM103 °FSunny.6 mph13%29.73 "Hg10 mi
12:53 PM100 °FSunny.6 mph15%29.75 "Hg10 mi
11:53 AM101 °FSunny.9 mph15%29.77 "Hg10 mi
10:53 AM99 °FSunny.10 mph16%29.79 "Hg10 mi
9:53 AM96 °FSunny.7 mph17%29.80 "Hg10 mi
8:53 AM93 °FSunny.No wind19%29.81 "Hg10 mi
7:53 AM90 °FSunny.5 mph23%29.81 "Hg10 mi
6:53 AM87 °FSunny.6 mph25%29.80 "Hg10 mi
5:53 AM80 °FSunny.No wind29%29.79 "Hg10 mi
4:53 AM82 °FClear.3 mph27%29.77 "Hg10 mi
3:53 AM85 °FClear.3 mph26%29.75 "Hg10 mi
2:53 AM87 °FClear.No wind25%29.73 "Hg10 mi
1:53 AM89 °FClear.No wind23%29.72 "Hg10 mi
Weather by CustomWeather, © 2016

See weather overviewHow to use our weather pages